CAPE
0 0 285 407 666 1016 1244 1385 1455 1235 1291 1133 1627 1720 1697 1748 1864 1859 1695 1585 1564 1459 1385 1179 1159 1443 1275 1301 1209 1167 1011 932 929 925 1014 1046 1009 858 1026 1166 1042 814 1219
0 0 326 430 549 900 1297 1469 1460 1424 1333 1457 1373 1214 1465 1605 1788 1814 1765 1667 1515 1488 1370 1371 1414 1395 1354 1102 1142 1090 923 745 679 853 729 752 941 1040 1008 1021 1258 952 1225
0 0 122 461 594 748 1072 1424 1474 1279 1250 1177 1314 893 525 1005 1613 1580 1699 1619 1615 1530 1441 1346 1297 1194 1145 1083 1079 1073 850 666 556 492 432 136 420 867 886 917 1125 996 972
0 0 0 341 518 597 1026 1161 1453 1231 984 1212 1038 922 1016 793 715 999 1443 1598 1464 1393 1256 1075 973 949 972 1070 1071 801 639 285 100 40 7 77 275 824 773 779 812 902 741
0 0 0 140 478 545 621 1146 1257 1219 1197 1103 1092 959 1018 814 650 617 1150 1266 1172 1230 824 600 808 715 768 912 677 475 258 85 13 0 1 27 174 486 732 723 608 579 580
0 0 76 324 484 651 827 1047 1128 975 946 904 861 1038 868 737 898 1054 1031 899 903 801 668 588 398 541 501 532 286 114 2 0 0 0 0 153 133 593 712 608 591 558 524
0 27 358 732 918 946 878 821 866 735 673 772 721 649 551 647 880 1062 877 656 602 583 398 239 343 574 351 243 112 7 0 0 0 0 0 0 184 484 519 535 492 406 346
0 0 285 751 512 215 283 566 603 428 558 593 623 179 371 549 906 863 651 412 322 284 211 76 182 452 221 102 2 0 0 0 0 0 0 0 177 152 271 298 307 313 257
0 0 0 20 169 136 523 763 641 508 310 564 255 18 3 4 195 405 279 195 140 160 115 32 56 90 91 12 0 0 0 0 0 0 0 0 20 11 25 81 54 54 20
0 0 0 0 0 0 5 547 384 115 42 21 17 4 0 0 13 86 55 69 90 66 16 6 6 19 2 0 0 0 0 0 0 0 0 0 9 10 19 23 15 8 4
8 1 2 0 0 0 1 0 52 38 18 10 7 11 1 0 0 0 35 57 44 25 3 0 0 0 0 0 0 0 0 0 0 0 0 18 18 25 20 14 13 6 9
5 5 3 0 0 0 0 0 0 0 0 0 0 0 1 1 0 0 0 8 2 2 1 0 0 0 0 0 0 0 0 0 0 0 9 47 43 41 33 30 27 21 9
1 5 1 1 0 0 0 0 0 0 0 0 0 0 0 0 1 0 0 0 0 0 0 0 0 0 0 0 0 0 0 0 0 0 13 24 34 24 19 18 22 17 6
1 4 2 0 0 0 0 0 0 0 0 0 0 0 0 0 0 0 0 0 0 0 0 0 0 0 0 0 0 0 0 0 0 0 2 16 17 14 30 14 14 9 3
0 0 1 0 0 0 0 0 0 0 0 0 0 0 0 0 0 0 0 0 0 0 0 0 0 0 0 0 0 0 0 0 0 0 0 5 8 6 8 5 4 7 8
0 0 1 0 0 0 0 0 0 0 0 0 0 0 0 0 0 0 0 0 0 0 0 0 0 0 0 0 0 0 0 0 0 0 0 0 3 5 7 5 10 11 9
0 0 0 0 0 0 0 0 0 0 0 0 0 0 0 0 0 0 0 0 0 0 0 0 0 0 0 0 0 0 0 0 0 0 0 0 0 0 2 3 5 5 5
0 0 0 0 0 0 0 0 0 0 0 0 0 0 0 0 0 0 0 0 0 0 0 0 0 0 0 0 0 0 0 0 0 0 0 0 0 0 0 0 1 2 5
0 0 1 0 0 0 0 0 0 0 0 0 0 0 0 0 0 0 0 0 0 0 0 0 0 0 0 0 0 0 0 0 0 0 0 0 0 0 0 0 0 0 0
0 0 0 0 0 0 0 0 0 0 0 0 0 0 0 0 0 0 0 0 0 0 0 0 0 0 0 0 0 0 0 0 0 0 0 0 0 0 0 0 0 0 0
0 0 0 0 0 0 0 0 0 0 0 0 0 0 0 0 0 0 0 0 0 0 0 0 0 0 0 0 0 0 0 0 0 0 0 0 0 0 0 0 0 0 0
0 0 1 1 0 0 0 0 0 0 0 0 0 0 0 0 0 0 0 0 0 0 0 0 0 0 0 0 0 0 0 0 0 0 0 0 0 0 0 0 0 0 0
0 0 1 0 0 0 0 0 0 0 0 0 0 0 0 0 0 0 0 0 0 0 0 0 0 0 0 0 0 0 0 0 0 0 0 0 0 0 0 0 0 0 0
0 0 0 0 0 0 0 0 0 0 0 0 0 0 0 0 0 0 0 0 0 0 0 0 0 0 0 0 0 0 0 0 0 0 0 0 0 0 0 0 0 0 0
0 0 0 0 0 0 0 0 0 0 0 0 0 0 0 0 0 0 0 0 0 0 0 0 0 0 0 0 0 0 0 0 0 0 0 0 0 0 0 0 0 0 0
0 0 0 0 0 0 0 0 0 0 0 0 0 0 0 0 0 0 0 0 0 0 0 0 0 0 0 0 0 0 0 0 0 0 0 0 0 0 0 0 0 0 0
CIN
0 0 -165 -131 -73 -31 -17 0 0 0 0 0 -1 0 0 -1 0 0 0 0 -1 0 0 0 -1 0 0 0 0 0 0 0 0 0 0 -2 -1 0 0 -1 -4 -1 0
0 0 -159 -116 -87 -37 -3 0 0 0 -1 0 0 -4 0 0 0 0 0 0 0 -1 0 0 0 0 0 0 0 0 0 0 0 -1 -2 -4 -1 0 0 -1 -1 -1 0
0 0 -209 -110 -75 -40 -7 0 0 0 -4 -7 -2 -8 -38 -3 -1 -2 0 0 0 0 0 0 0 0 0 -1 0 0 0 0 -1 -4 -10 -19 -3 0 0 -3 -2 0 0
0 0 0 -125 -67 -41 -2 0 0 0 -3 -1 -8 -3 -1 -6 -8 0 -5 0 0 0 -1 0 -2 -2 0 0 0 -1 0 -7 -30 -41 -14 -31 -3 0 0 -2 -1 0 0
0 0 0 -169 -56 -26 -15 0 0 0 -1 -1 -2 -5 -1 -2 -10 -1 -5 -1 -3 0 0 -1 0 -4 -1 0 0 0 -15 -23 -54 0 -28 -40 -19 -2 0 0 0 0 -1
0 0 -225 -106 -32 -11 -1 0 0 -2 0 -2 -2 0 -1 -4 -5 0 -1 -1 0 0 0 -2 -1 -4 -1 0 -1 -14 -27 0 0 0 -1 -6 -8 -1 0 0 0 0 0
0 -203 -100 -17 -3 0 -1 0 -5 -1 -5 -4 -1 -6 -2 -1 -3 -1 -11 0 0 0 -2 -1 0 0 -7 -3 -19 -64 0 0 0 0 0 0 -4 0 0 0 0 0 0
0 0 -97 -7 -27 -51 -37 -1 -1 -1 -1 -3 -2 -4 -24 -1 0 0 0 -1 -2 -6 -1 -16 -1 -4 -2 -28 -36 0 0 0 0 0 0 0 -3 -4 -1 -1 0 -1 -1
0 0 0 -84 -94 -70 -2 -4 0 0 0 0 -2 -84 -26 -58 -64 0 -1 0 0 0 -1 -54 -49 -42 -16 -84 0 0 0 0 0 0 0 0 -33 0 -3 -3 0 -20 -13
0 0 0 0 0 0 -33 -3 -1 -6 -3 -21 -53 0 0 0 -3 0 -4 -6 -2 -4 -23 -116 -182 -118 0 0 0 0 0 0 0 0 0 -1 0 0 0 0 0 0 0
-23 -23 -67 0 0 0 -24 -6 -55 -10 -23 0 0 0 0 0 0 0 -2 0 0 -2 0 0 0 0 0 0 0 0 0 0 0 0 0 -1 0 0 0 0 0 0 0
-19 -29 -65 0 0 0 0 0 0 0 0 0 0 0 0 -1 0 0 0 -1 0 0 0 0 0 0 0 0 0 0 0 0 0 0 -11 -3 0 0 0 0 0 0 0
-21 -25 -55 -42 0 0 0 0 0 0 0 0 0 0 0 0 0 0 0 0 0 0 0 0 0 0 0 0 0 0 0 0 0 0 -16 -6 0 0 0 0 -1 -1 0
-11 -25 -51 0 0 0 0 0 0 0 0 0 0 0 0 0 0 0 0 0 0 0 0 0 0 0 0 0 0 0 0 0 0 0 -14 -6 -2 0 0 0 0 0 0
0 -17 0 0 0 0 0 0 0 0 0 0 0 0 0 0 0 0 0 0 0 0 0 0 0 0 0 0 0 0 0 0 0 0 0 -12 -5 -1 0 0 0 0 0
0 0 0 0 0 0 0 0 0 0 0 0 0 0 0 0 0 0 0 0 0 0 0 0 0 0 0 0 0 0 0 0 0 0 0 0 -3 -1 0 0 0 0 0
0 0 0 0 0 0 0 0 0 0 0 0 0 0 0 0 0 0 0 0 0 0 0 0 0 0 0 0 0 0 0 0 0 0 0 0 0 0 0 0 0 0 0
0 0 0 0 0 0 0 0 0 0 0 0 0 0 0 0 0 0 0 0 0 0 0 0 0 0 0 0 0 0 0 0 0 0 0 0 0 0 0 0 0 0 0
0 0 0 0 0 0 0 0 0 0 0 0 0 0 0 0 0 0 0 0 0 0 0 0 0 0 0 0 0 0 0 0 0 0 0 0 0 0 0 0 0 0 0
0 0 0 0 0 0 0 0 0 0 0 0 0 0 0 0 0 0 0 0 0 0 0 0 0 0 0 0 0 0 0 0 0 0 0 0 0 0 0 0 0 0 0
0 0 0 0 0 0 0 0 0 0 0 0 0 0 0 0 0 0 0 0 0 0 0 0 0 0 0 0 0 0 0 0 0 0 0 0 0 0 0 0 0 0 0
0 0 0 0 0 0 0 0 0 0 0 0 0 0 0 0 0 0 0 0 0 0 0 0 0 0 0 0 0 0 0 0 0 0 0 0 0 0 0 0 0 0 0
0 0 0 -1 0 0 0 0 0 0 0 0 0 0 0 0 0 0 0 0 0 0 0 0 0 0 0 0 0 0 0 0 0 0 0 0 0 0 0 0 0 0 0
0 0 0 0 0 0 0 0 0 0 0 0 0 0 0 0 0 0 0 0 0 0 0 0 0 0 0 0 0 0 0 0 0 0 0 0 0 0 0 0 0 0 0
0 0 0 0 0 0 0 0 0 0 0 0 0 0 0 0 0 0 0 0 0 0 0 0 0 0 0 0 0 0 0 0 0 0 0 0 0 0 0 0 0 0 0
0 0 0 0 0 0 0 0 0 0 0 0 0 0 0 0 0 0 0 0 0 0 0 0 0 0 0 0 0 0 0 0 0 0 0 0 0 0 0 0 0 0 0
Wind_Speed
5 7 13 12 10 8 12 11 11 11 12 12 14 14 15 14 15 15 13 13 15 15 16 17 18 20 19 21 20 19 19 18 18 17 15 16 16 17 17 15 14 12 18
7 6 13 12 11 9 8 12 11 11 11 12 13 15 15 16 14 15 15 15 14 16 16 17 18 19 20 21 21 21 20 19 18 16 14 13 16 19 19 17 16 16 18
6 5 6 12 11 10 8 8 12 12 11 11 12 12 11 11 14 14 14 17 16 16 16 16 19 21 22 23 22 22 22 20 19 16 12 5 9 18 18 17 17 19 19
7 5 6 12 12 11 9 9 11 12 13 11 12 11 15 14 11 12 14 17 19 19 20 18 19 21 22 22 22 22 21 21 19 15 7 6 8 18 18 18 18 19 19
7 6 6 13 12 12 12 10 10 10 12 13 12 13 17 18 16 13 14 19 22 25 24 21 18 18 20 22 23 22 22 21 17 12 9 7 6 15 19 18 17 18 17
6 5 9 14 13 13 13 11 11 10 10 11 13 14 16 17 23 22 20 21 22 24 24 25 21 16 19 21 22 21 20 18 14 9 9 10 7 17 20 19 17 19 19
6 4 6 13 13 10 9 11 13 11 10 10 10 9 10 16 17 22 24 23 22 23 22 23 21 21 19 20 20 20 19 17 10 8 7 6 10 19 20 20 20 19 19
7 4 6 9 10 4 3 9 9 10 10 11 10 17 4 14 23 25 26 25 23 22 20 20 20 24 22 19 21 20 18 15 9 7 7 7 14 18 18 20 20 20 21
6 6 6 5 6 3 2 7 15 16 15 21 23 21 23 27 15 29 25 24 23 20 20 19 20 20 21 20 20 18 17 15 8 5 7 5 16 16 17 18 19 21 21
4 5 6 6 5 5 6 13 16 19 20 22 23 21 23 27 19 19 22 21 20 17 18 19 19 20 20 20 20 18 16 14 7 6 5 6 16 17 17 19 17 17 18
5 5 7 7 5 5 8 10 14 17 19 18 19 19 16 9 17 8 16 17 17 14 15 20 20 19 18 17 18 17 12 4 5 4 3 12 16 18 17 17 16 15 17
7 6 8 9 7 5 5 6 8 7 7 7 8 8 7 8 12 8 11 16 14 12 15 17 20 16 11 5 5 11 4 5 4 4 3 16 18 18 17 17 16 16 15
8 6 8 10 7 7 5 5 4 3 4 5 9 8 8 6 7 6 4 5 4 7 4 6 9 5 6 6 5 5 5 5 3 3 10 18 16 16 15 14 14 14 12
11 9 9 10 9 7 4 4 4 5 4 4 4 8 8 6 6 5 4 4 4 2 5 4 5 6 7 8 7 7 7 5 3 3 10 14 14 14 15 14 13 12 10
14 10 10 11 10 9 5 5 4 5 4 5 4 5 6 8 8 7 5 3 4 3 4 5 5 6 7 6 6 9 8 6 7 4 7 14 14 12 12 12 11 11 10
12 13 12 12 11 11 7 6 4 5 6 5 4 4 5 5 7 7 6 4 4 3 4 4 4 6 6 6 7 8 8 7 8 7 6 9 13 12 12 11 10 10 10
16 14 13 13 12 12 11 7 4 4 5 6 6 6 6 5 5 6 4 4 4 4 6 6 7 7 6 7 8 6 7 7 7 8 8 6 6 12 11 10 9 9 8
14 16 14 12 14 12 10 8 5 4 4 5 6 6 8 7 6 5 4 4 4 4 4 5 5 6 6 6 5 5 5 6 7 8 7 5 5 5 7 10 9 8 8
16 18 16 14 15 13 10 7 7 6 4 4 4 5 8 8 8 7 5 3 5 5 4 5 4 4 7 6 7 5 4 5 5 6 6 6 6 5 4 7 9 9 8
15 18 18 12 14 13 9 6 5 5 3 3 3 4 7 6 7 8 6 5 5 4 4 5 5 5 4 7 8 7 5 4 4 4 5 4 5 5 5 5 4 4 8
14 18 17 15 14 12 9 7 4 6 4 3 3 5 6 6 7 7 5 7 6 6 5 6 4 8 3 6 5 4 5 5 5 4 3 3 4 4 4 4 3 3 3
17 18 17 16 15 11 9 7 4 5 3 3 3 4 5 8 8 9 9 7 8 7 9 8 5 3 2 1 5 4 2 2 3 2 2 2 3 2 3 3 4 3 3
6 13 16 15 16 12 12 9 7 7 5 3 3 4 4 6 7 6 8 8 6 6 6 8 7 7 4 0 2 6 3 4 2 1 1 2 3 2 2 2 2 3 3
8 1 12 12 14 11 13 11 16 9 8 4 4 4 4 5 6 5 6 8 7 5 7 4 6 6 4 6 2 2 4 5 4 1 1 1 1 3 3 2 3 2 2
11 8 6 11 11 11 11 9 9 9 5 5 6 8 6 4 4 5 5 6 5 4 5 6 5 3 3 3 3 2 2 2 2 4 3 2 0 2 2 2 3 2 2
12 12 8 9 9 9 9 9 10 12 10 8 6 5 4 3 3 6 4 4 7 4 5 4 6 7 4 4 3 3 2 2 2 3 3 1 2 2 2 2 3 2 2
Wind_Direction
225 184 183 187 192 187 179 173 175 186 179 186 184 176 161 150 141 141 147 144 143 146 148 143 144 134 130 123 119 113 102 98 95 95 92 93 97 92 89 81 73 85 91
148 176 182 187 193 189 194 182 174 183 193 200 202 192 169 146 139 146 149 147 147 144 146 145 139 135 130 120 114 109 104 97 94 84 86 94 94 96 91 85 82 86 85
135 168 193 190 191 196 198 201 187 191 197 211 209 177 193 143 142 143 145 145 141 134 133 133 129 127 123 118 110 105 104 96 86 73 69 75 90 95 94 88 92 90 90
154 168 179 195 197 200 206 208 199 201 213 219 224 195 150 151 170 153 153 142 136 128 120 114 115 115 113 112 108 106 101 93 83 71 59 55 95 100 99 96 90 90 89
175 170 182 198 202 207 215 221 213 210 222 223 221 196 182 173 154 153 160 136 125 112 106 92 90 108 114 111 109 107 101 94 84 79 75 57 61 100 96 89 90 91 90
169 180 196 194 202 210 216 227 230 218 221 219 219 211 203 189 167 164 146 124 117 114 123 121 114 117 114 111 109 106 100 90 84 76 74 87 82 94 94 94 96 95 94
150 172 184 196 196 195 204 228 234 210 207 205 211 210 214 189 167 141 126 112 105 109 109 112 119 124 115 108 108 103 96 84 82 78 69 71 95 93 91 90 90 92 93
141 158 94 125 130 136 315 245 233 189 195 181 159 80 264 199 159 134 118 112 108 108 110 111 115 118 118 115 108 104 97 90 79 77 72 75 84 90 89 87 85 85 82
140 130 112 98 104 100 130 188 140 128 140 113 114 104 89 61 132 117 111 105 104 110 114 111 109 115 117 114 107 103 100 94 83 79 79 72 97 102 101 92 87 84 78
146 147 125 102 92 71 68 133 138 128 121 119 110 108 105 99 48 62 88 99 105 111 114 112 110 109 114 112 109 105 99 87 78 75 70 96 110 106 103 94 88 85 79
151 150 124 116 100 91 101 91 112 124 120 115 112 112 107 111 102 62 79 94 98 112 117 116 110 112 108 104 105 101 91 77 77 66 79 117 113 101 98 97 99 96 87
166 154 135 129 120 87 93 93 99 90 99 102 92 87 95 106 103 106 100 97 111 123 129 117 109 105 89 77 77 88 71 70 74 72 84 101 101 98 93 90 91 94 86
162 156 151 138 126 117 115 110 93 78 88 100 111 112 95 86 80 90 67 73 63 66 62 67 90 70 84 95 77 73 77 63 51 65 83 83 94 96 99 93 92 84 94
168 162 155 144 136 131 123 106 113 110 91 80 82 110 117 100 80 67 71 74 80 47 97 90 90 96 81 74 91 82 71 61 46 39 80 80 96 100 97 97 92 88 89
176 164 162 151 147 146 129 123 125 122 109 104 92 86 113 124 123 116 115 102 91 80 70 89 95 98 93 74 65 87 68 55 52 52 80 81 89 100 103 101 99 94 89
175 172 162 161 156 151 143 143 138 129 129 113 103 113 95 112 129 132 129 128 118 122 108 94 99 88 71 88 73 68 74 63 54 50 70 71 76 77 89 90 87 88 89
188 165 169 162 159 159 155 143 136 144 135 138 131 114 107 103 114 114 110 108 129 123 105 93 86 90 90 79 73 69 76 70 61 64 68 64 56 74 81 85 83 78 84
174 180 177 164 162 159 154 151 141 142 136 130 134 134 132 116 111 101 106 126 134 100 105 99 100 100 90 98 93 70 73 75 75 65 70 67 62 43 61 77 74 77 74
180 181 182 169 162 156 150 145 145 143 128 123 120 129 132 131 132 119 116 110 96 82 78 116 74 99 116 99 95 72 64 72 74 86 79 74 75 71 48 75 74 68 63
178 182 183 171 163 148 137 121 111 127 107 113 121 131 141 135 134 133 129 125 105 107 90 69 80 47 87 111 93 71 50 56 65 71 89 87 85 81 78 67 39 24 72
170 178 176 165 167 149 143 141 137 160 148 132 137 141 142 144 140 121 131 137 137 129 129 129 112 119 80 119 99 53 39 39 70 76 71 83 84 83 91 88 69 37 24
177 179 178 176 164 167 159 154 136 141 123 116 110 127 137 143 146 154 153 151 152 138 145 150 139 122 91 36 112 97 86 356 23 50 97 145 146 119 109 98 90 80 53
144 178 181 174 164 164 155 118 94 85 77 57 116 116 155 151 161 153 158 142 147 135 161 159 151 147 143 7 94 132 119 209 144 1 180 245 159 157 122 128 121 108 99
13 334 169 158 161 154 152 150 155 168 157 168 151 123 116 148 128 145 157 141 158 153 149 176 169 134 140 158 152 115 83 142 157 178 318 255 182 196 178 181 140 149 145
17 16 122 146 147 146 154 159 153 142 104 120 125 125 124 105 140 141 141 132 131 146 143 149 117 98 96 140 83 143 98 60 93 133 177 215 220 207 198 183 171 174 168
27 28 51 99 114 132 136 144 147 138 135 133 137 131 134 125 126 134 134 139 126 150 142 149 148 137 117 97 98 69 89 162 191 139 123 157 166 241 191 167 185 187 180